View from above orbital plane
|
View from above satellite
|
Ground track
|
The orbit data is extracted from the following two-line orbital elements,
1 32958U 08026A 21015.64873823 -.00000023 00000-0 88403-5 0 9997
2 32958 98.4312 356.6446 0009866 82.7968 277.4330 14.18644905654912
Epoch (UTC): | 15 January 2021 15:34:10 |
Eccentricity: | 0.0009866 |
inclination: | 98.4312° |
perigee height: | 823 km |
apogee height: | 837 km |
right ascension of ascending node: | 356.6446° |
argument of perigee: | 82.7968° |
revolutions per day: | 14.18644905 |
mean anomaly at epoch: | 277.4330° |
orbit number at epoch: | 65491 |
The dashed part of the orbit path shows where the satellite is in the earth's shadow,
|
|